Wind_Speed
7 6 7 13 16 21 26 29 31 38 44 42 44 45 45 44 43 40 36 34 33 34 34 35 36 38 38 35 34 28 25 24 26 27 26 25 25 24 23 24 26 24 21 20
8 6 7 8 10 13 18 22 25 35 40 41 43 43 42 39 35 31 29 29 30 32 34 36 37 38 37 36 33 28 27 27 26 23 21 20 20 19 19 21 21 18 16 17
6 8 5 4 5 6 11 16 20 25 29 29 32 32 32 31 28 27 28 30 31 34 36 36 37 38 36 35 31 28 27 25 22 21 21 19 17 17 18 19 18 17 17 17
3 7 6 5 8 10 8 16 15 17 19 18 25 22 21 27 26 27 28 29 31 35 38 37 37 37 33 30 28 28 30 28 24 24 23 21 20 21 21 21 20 19 17 16
6 7 9 8 11 11 11 14 13 14 15 16 17 18 15 24 26 28 31 33 36 38 41 38 34 31 29 29 32 34 34 30 27 26 27 26 25 25 26 27 26 24 22 21
5 4 6 9 11 10 11 11 11 13 13 10 14 11 10 20 20 22 26 31 34 35 37 33 30 28 28 30 32 33 33 32 29 28 29 28 30 31 31 32 32 30 27 24
7 10 9 7 7 11 13 12 9 8 9 12 17 10 16 20 20 21 24 27 27 29 29 30 29 23 26 30 32 33 33 33 32 32 31 30 32 34 34 35 36 35 32 27
5 7 12 8 6 8 10 10 8 8 10 12 14 9 17 18 19 20 21 24 25 26 28 30 32 31 34 36 36 35 36 35 37 38 36 35 35 37 35 34 35 34 34 31
7 9 13 9 6 7 8 9 10 11 11 11 9 12 18 23 23 23 23 25 27 29 31 32 32 35 37 38 38 39 39 40 44 44 43 42 41 40 38 35 33 32 32 30
5 6 9 8 7 7 9 11 10 10 10 10 12 15 21 20 24 27 29 32 33 35 37 38 38 37 38 41 44 45 46 49 51 51 50 48 45 43 40 37 37 36 32 29
5 6 9 11 11 13 14 15 13 13 15 17 16 20 24 23 25 27 30 34 37 40 41 42 44 44 43 45 48 50 52 54 55 56 56 55 53 50 44 39 36 35 33 28
8 9 10 12 15 15 16 18 18 18 20 23 26 28 29 30 32 33 35 37 39 40 42 44 46 48 49 50 52 55 58 60 61 61 61 60 61 58 52 46 39 38 33 26
12 14 15 16 20 22 21 22 22 23 25 27 28 32 35 37 38 39 41 42 43 44 46 47 50 52 53 55 55 57 59 62 65 66 65 66 65 64 61 54 46 40 35 33
15 16 18 19 20 23 25 26 27 28 29 29 30 39 40 41 42 43 43 44 46 46 49 51 53 54 58 59 57 56 61 68 72 71 75 77 74 71 65 59 54 45 37 39
17 17 19 20 21 24 27 27 28 31 32 34 34 38 41 43 44 45 44 47 47 48 51 55 60 63 68 64 64 63 67 65 62 67 72 76 62 60 70 68 63 50 51 54
19 19 20 21 23 26 30 30 31 33 34 36 37 38 41 46 49 51 52 54 57 59 62 65 68 71 74 76 76 75 76 77 70 69 73 64 61 65 71 70 67 66 77 77
20 21 23 24 27 28 31 32 34 34 33 36 41 46 50 52 55 58 60 63 65 68 73 77 80 82 84 85 85 83 81 88 88 87 85 86 86 80 76 78 79 79 78 74
20 22 23 24 26 26 28 31 34 37 38 43 48 52 55 58 61 65 69 73 76 79 82 83 84 84 83 80 77 73 69 68 69 67 64 71 80 87 84 80 83 81 80 72
23 24 24 24 26 29 30 34 39 43 45 49 53 56 60 64 67 70 75 80 82 82 79 75 70 65 61 55 46 40 36 34 34 37 39 39 43 51 60 67 70 74 78 75
24 24 26 28 29 32 36 39 42 47 51 55 59 62 66 70 72 74 79 79 74 66 59 52 45 41 38 38 41 44 41 39 37 37 36 37 37 36 37 41 50 57 64 68
23 24 26 29 31 35 38 41 44 49 54 58 62 65 69 74 79 80 74 63 53 44 38 36 38 40 43 46 48 49 50 50 47 45 46 46 39 34 35 35 37 41 48 58
26 28 30 32 34 39 42 44 47 52 57 62 66 70 76 81 80 71 56 44 38 35 37 40 43 47 51 52 51 51 51 50 49 48 49 48 43 37 35 33 31 31 33 41
30 32 35 36 37 41 45 49 52 57 61 66 71 76 83 81 69 55 43 36 37 40 44 47 48 48 49 51 52 50 48 49 52 52 49 48 48 42 38 36 31 26 24 27
34 36 38 40 41 43 47 50 54 60 66 72 77 82 82 68 53 43 36 37 42 46 48 48 47 48 48 49 52 55 53 53 54 52 51 51 48 48 45 40 33 26 23 25
37 39 41 44 47 48 50 54 59 64 70 76 81 80 69 54 44 38 39 43 47 49 49 51 54 54 51 51 52 52 54 56 58 53 52 54 54 54 47 43 35 26 24 26
38 41 43 44 46 49 52 57 62 67 73 78 82 73 55 46 41 42 45 47 49 50 52 55 57 54 49 48 49 49 52 56 53 49 48 48 48 45 45 45 41 30 28 28
Wind_Direction
302 314 277 264 256 244 242 242 243 248 251 253 256 260 264 266 268 269 270 267 263 265 268 273 280 286 292 298 304 300 290 288 286 285 283 284 283 282 283 282 281 283 288 295
19 315 282 287 278 267 257 252 251 252 254 255 259 265 269 274 275 270 266 265 264 266 269 273 282 288 294 299 301 293 291 293 290 284 280 279 281 281 279 275 274 277 291 305
172 258 288 304 302 278 279 267 260 263 264 269 270 275 280 275 271 267 266 266 266 270 273 277 283 287 292 296 294 287 287 292 286 279 277 275 275 278 282 281 279 280 291 303
262 266 266 277 285 278 278 271 273 273 274 272 269 269 266 276 278 274 271 272 273 276 279 280 283 286 292 295 294 293 293 292 285 280 280 281 282 283 282 280 277 278 286 291
286 275 280 292 279 281 282 284 285 289 289 288 278 280 279 274 271 266 263 264 268 272 277 277 277 280 286 292 296 298 297 290 283 282 287 286 284 281 279 278 277 276 280 285
1 339 299 281 280 287 304 301 295 306 313 309 285 290 281 274 277 269 262 261 263 266 270 269 267 277 286 291 294 295 294 290 286 287 289 287 285 284 283 283 281 279 282 287
9 357 354 330 299 292 302 308 314 308 296 285 289 295 267 284 290 284 277 276 278 278 275 267 262 277 283 284 286 288 289 290 290 288 284 283 284 285 284 281 277 274 274 279
322 309 324 339 318 298 303 313 300 274 272 279 300 293 281 298 294 289 281 278 278 277 281 283 285 289 285 283 283 282 283 286 286 285 282 280 280 281 282 282 277 272 269 271
298 302 318 335 325 323 326 325 320 312 317 325 295 292 300 301 299 293 285 282 281 282 284 286 283 279 277 279 283 283 281 284 284 282 279 279 279 281 283 281 274 273 275 277
320 307 313 333 335 326 328 324 322 316 306 289 285 290 279 282 289 290 288 286 284 281 283 283 283 281 277 276 279 283 281 279 279 280 279 278 278 277 277 278 275 272 274 280
339 330 325 336 336 329 328 320 310 298 294 297 291 281 287 294 290 285 280 278 278 279 279 278 276 278 278 275 275 275 275 275 276 277 278 277 277 278 277 274 270 268 270 275
351 341 328 327 327 325 319 315 312 310 306 305 302 298 303 304 302 297 292 288 285 281 276 274 274 274 275 275 274 273 272 272 269 268 269 270 271 274 274 271 266 265 266 272
340 332 328 331 326 324 321 315 313 310 308 309 305 298 307 305 301 298 295 292 290 287 284 282 279 277 277 277 277 278 277 274 271 267 265 265 268 271 271 268 267 264 258 267
334 330 325 323 316 313 314 313 314 313 310 308 301 301 306 302 299 299 295 294 292 290 289 289 289 283 281 280 275 283 279 273 265 263 262 261 262 265 264 261 263 252 258 273
333 327 322 319 316 314 312 315 313 312 313 310 307 304 304 304 304 303 301 298 295 292 290 289 289 286 281 279 275 282 282 269 258 255 258 255 251 261 258 254 252 247 273 281
335 330 326 322 321 320 317 322 318 316 315 313 311 309 307 307 305 304 303 300 297 295 292 288 285 281 279 279 279 274 272 264 268 276 276 269 269 263 259 253 251 259 280 283
333 330 328 328 326 323 322 322 318 316 317 314 311 309 309 308 308 307 305 302 299 296 293 291 289 287 286 285 285 284 280 279 277 275 275 274 271 265 266 265 263 269 277 278
331 329 328 327 322 326 320 318 315 316 316 312 311 311 311 311 310 310 309 306 303 299 295 292 291 290 290 291 292 293 292 290 289 288 285 279 273 272 271 267 264 265 266 268
331 330 330 331 328 324 323 321 320 319 318 316 315 315 315 314 313 312 309 306 302 300 299 298 296 295 296 296 295 295 298 303 308 309 308 303 293 283 275 268 263 261 262 262
336 335 334 333 329 325 325 323 323 322 321 322 320 320 319 317 315 312 308 305 304 304 303 302 303 304 305 304 303 300 295 295 299 300 302 305 308 307 297 278 263 254 248 246
337 334 331 330 325 323 323 322 323 323 324 322 321 322 321 321 317 314 311 310 310 312 312 310 310 309 305 302 301 298 294 291 288 288 288 288 291 294 296 292 281 264 248 239
339 335 333 331 326 324 324 324 326 325 326 326 326 326 325 323 320 317 316 315 315 316 313 310 307 306 303 301 299 298 295 290 287 290 288 284 283 284 287 290 291 276 256 245
339 335 332 330 329 327 327 328 329 328 328 329 329 330 328 325 323 321 319 318 317 316 313 309 307 307 306 302 299 299 294 290 288 287 282 275 273 273 273 276 282 275 258 253
337 334 331 328 328 328 328 328 328 330 332 333 334 332 330 326 326 324 322 322 320 318 316 311 309 308 304 299 296 295 292 290 290 285 277 270 270 270 264 262 266 270 255 252
336 335 333 331 331 333 332 331 332 334 335 336 336 333 329 329 329 327 325 324 322 320 317 312 312 312 308 304 303 298 295 293 291 288 283 277 271 267 254 246 247 257 249 244
338 336 334 334 334 334 335 335 336 336 337 338 338 335 333 333 331 327 326 325 323 321 318 315 314 313 311 307 304 300 297 298 293 283 281 279 273 253 236 233 237 245 249 241
Height
5870 5872 5872 5871 5872 5874 5875 5877 5878 5878 5878 5882 5882 5882 5882 5883 5883 5883 5883 5882 5881 5880 5879 5877 5874 5871 5869 5866 5863 5858 5855 5852 5850 5848 5846 5844 5843 5840 5838 5836 5835 5833 5832 5831
5871 5871 5868 5868 5869 5870 5872 5873 5874 5873 5873 5875 5874 5875 5875 5876 5876 5876 5876 5876 5875 5874 5872 5869 5866 5864 5861 5858 5855 5852 5850 5847 5844 5842 5840 5838 5836 5835 5834 5832 5830 5828 5827 5825
5872 5870 5867 5868 5869 5869 5871 5870 5869 5869 5869 5870 5870 5871 5869 5869 5870 5871 5870 5870 5869 5866 5863 5861 5859 5855 5852 5850 5847 5845 5844 5841 5839 5836 5833 5832 5831 5830 5828 5826 5825 5823 5821 5819
5870 5868 5866 5867 5868 5866 5868 5865 5864 5864 5864 5865 5864 5865 5867 5863 5863 5863 5863 5863 5861 5857 5853 5851 5849 5846 5844 5842 5840 5838 5836 5834 5832 5830 5828 5827 5826 5824 5822 5820 5819 5817 5815 5812
5869 5867 5865 5865 5865 5863 5863 5861 5861 5860 5860 5860 5859 5859 5862 5857 5856 5855 5855 5854 5851 5848 5844 5842 5839 5838 5836 5834 5831 5830 5828 5826 5825 5824 5823 5821 5820 5818 5816 5815 5813 5810 5808 5805
5866 5865 5864 5863 5862 5861 5860 5860 5859 5859 5859 5859 5856 5858 5860 5851 5849 5849 5846 5844 5842 5839 5835 5833 5831 5831 5830 5827 5823 5822 5820 5818 5818 5817 5817 5815 5813 5811 5810 5808 5806 5804 5802 5799
5868 5865 5864 5862 5862 5861 5859 5859 5859 5861 5861 5859 5854 5854 5852 5847 5845 5843 5841 5838 5838 5835 5832 5829 5823 5823 5823 5819 5816 5815 5813 5811 5809 5809 5809 5808 5806 5804 5802 5800 5798 5796 5794 5792
5870 5869 5864 5862 5860 5858 5857 5856 5857 5858 5858 5854 5850 5850 5844 5842 5839 5837 5835 5833 5831 5829 5826 5822 5819 5816 5816 5812 5809 5807 5805 5804 5802 5800 5799 5799 5798 5795 5793 5791 5788 5787 5786 5784
5868 5867 5863 5860 5858 5857 5855 5854 5854 5853 5851 5850 5851 5847 5839 5837 5833 5831 5830 5828 5825 5823 5820 5817 5815 5813 5809 5805 5802 5799 5797 5795 5793 5790 5787 5786 5786 5784 5781 5780 5779 5777 5776 5774
5865 5864 5862 5859 5858 5856 5855 5853 5852 5853 5850 5849 5848 5844 5841 5835 5831 5828 5824 5821 5818 5816 5812 5809 5805 5802 5800 5797 5793 5789 5786 5783 5781 5778 5775 5774 5773 5773 5771 5770 5769 5768 5767 5764
5863 5862 5861 5859 5857 5854 5852 5850 5848 5847 5845 5842 5840 5840 5833 5831 5828 5824 5819 5814 5810 5806 5803 5799 5795 5790 5787 5784 5781 5777 5775 5771 5767 5763 5761 5759 5759 5759 5760 5759 5758 5758 5757 5755
5862 5861 5859 5857 5855 5852 5849 5846 5844 5843 5839 5835 5831 5829 5825 5821 5818 5815 5810 5805 5801 5796 5792 5787 5783 5778 5774 5770 5766 5763 5759 5756 5751 5747 5745 5743 5741 5741 5743 5746 5745 5745 5744 5742
5860 5859 5856 5854 5852 5847 5844 5841 5839 5836 5833 5829 5825 5821 5816 5811 5807 5803 5798 5793 5788 5783 5778 5773 5769 5764 5761 5756 5751 5746 5741 5737 5734 5730 5726 5725 5724 5723 5724 5727 5729 5729 5729 5728
5857 5855 5853 5852 5848 5844 5840 5836 5832 5830 5827 5824 5820 5810 5805 5799 5794 5789 5783 5778 5773 5767 5762 5757 5752 5747 5742 5737 5733 5727 5723 5718 5714 5712 5709 5707 5707 5707 5706 5707 5710 5713 5714 5715
5854 5852 5849 5846 5842 5838 5834 5831 5828 5824 5820 5815 5810 5803 5795 5787 5781 5774 5768 5763 5758 5753 5746 5741 5735 5728 5722 5715 5713 5709 5704 5699 5696 5692 5688 5686 5687 5688 5688 5688 5689 5692 5696 5699
5850 5848 5845 5841 5838 5834 5828 5825 5820 5816 5812 5805 5799 5793 5786 5778 5770 5763 5756 5749 5743 5736 5730 5723 5716 5709 5702 5695 5688 5683 5681 5677 5673 5672 5670 5665 5665 5668 5667 5665 5668 5669 5673 5680
5846 5843 5840 5837 5832 5829 5822 5818 5812 5808 5805 5797 5789 5783 5774 5766 5757 5749 5742 5733 5725 5717 5707 5698 5689 5680 5672 5665 5658 5653 5648 5644 5640 5641 5643 5640 5641 5642 5642 5641 5643 5645 5649 5657
5843 5840 5836 5833 5829 5824 5821 5812 5806 5801 5796 5787 5779 5771 5761 5751 5742 5732 5721 5709 5701 5690 5679 5669 5659 5650 5644 5639 5633 5628 5623 5617 5613 5610 5609 5607 5607 5607 5608 5612 5617 5621 5627 5634
5839 5835 5831 5828 5823 5817 5812 5805 5797 5789 5783 5775 5765 5756 5746 5735 5726 5715 5700 5688 5675 5663 5652 5642 5633 5625 5621 5617 5612 5610 5607 5602 5598 5594 5589 5584 5581 5579 5578 5579 5581 5587 5596 5603
5835 5831 5827 5822 5817 5811 5805 5796 5787 5780 5770 5761 5750 5740 5730 5718 5709 5699 5681 5665 5652 5640 5630 5622 5616 5610 5606 5602 5599 5596 5592 5589 5586 5582 5578 5575 5573 5569 5563 5558 5556 5558 5564 5574
5832 5828 5823 5817 5811 5803 5797 5788 5781 5772 5763 5752 5739 5727 5714 5699 5684 5672 5657 5644 5631 5623 5616 5610 5605 5600 5595 5590 5586 5581 5576 5573 5570 5567 5565 5563 5561 5559 5555 5550 5544 5542 5544 5549
5828 5823 5817 5812 5805 5797 5787 5779 5771 5762 5749 5736 5724 5710 5695 5679 5661 5645 5634 5625 5617 5611 5605 5600 5595 5589 5582 5576 5570 5565 5560 5556 5553 5551 5550 5548 5546 5545 5544 5542 5537 5533 5532 5536
5822 5817 5811 5806 5800 5789 5778 5769 5759 5748 5736 5723 5709 5693 5675 5657 5642 5630 5621 5614 5608 5602 5595 5588 5581 5575 5568 5559 5551 5546 5542 5538 5534 5531 5529 5529 5529 5530 5532 5531 5532 5528 5526 5526
5818 5812 5804 5796 5789 5782 5772 5762 5751 5738 5723 5708 5692 5675 5656 5639 5628 5619 5612 5605 5599 5592 5584 5575 5568 5561 5553 5543 5534 5528 5523 5517 5512 5510 5509 5508 5510 5512 5516 5519 5522 5522 5521 5522
5811 5804 5797 5788 5779 5771 5762 5751 5738 5725 5710 5695 5678 5658 5640 5627 5619 5611 5604 5597 5588 5579 5571 5561 5552 5543 5534 5525 5518 5511 5503 5496 5491 5488 5487 5485 5487 5491 5498 5505 5511 5514 5515 5514
5806 5798 5789 5782 5774 5763 5753 5740 5726 5713 5699 5683 5666 5648 5632 5620 5612 5604 5595 5586 5576 5567 5557 5546 5535 5525 5516 5508 5501 5493 5485 5477 5470 5466 5465 5463 5462 5467 5477 5488 5498 5505 5506 5508